contact:dominique.lefevre@mio.osupytheas.fr, maurice.libes@osupytheas.fr, didier.mallarino@osupytheas.fr
Project:EMSO http://www.emso-fr.org/EMSO-France
Depth: 2436.0 m
Title:EMSO Ligure Ouest : Data MII capteur MICROCAT
DateTime_Computer,Latitude,Longitude,Temperature,Conductivity,Pressure,DateTime_Instrument
DateTime_Computer,Latitude,Longitude,degC,S m-1,dbar,DateTime_Instrument
2020-02-22T00:02:10Z,42.805,6.029,13.2978,4.59973,2469.83,2020-2-22T02:02:45Z
2020-02-22T00:05:13Z,42.805,6.029,13.2972,4.59976,2469.83,2020-2-22T02:05:49Z
2020-02-22T00:08:17Z,42.805,6.029,13.2973,4.59975,2469.867,2020-2-22T02:08:52Z
2020-02-22T00:11:20Z,42.805,6.029,13.2976,4.59973,2469.853,2020-2-22T02:11:55Z
2020-02-22T00:14:23Z,42.805,6.029,13.2974,4.59985,2469.806,2020-2-22T02:14:59Z
2020-02-22T00:17:26Z,42.805,6.029,13.2971,4.59974,2469.806,2020-2-22T02:18:02Z
2020-02-22T00:20:30Z,42.805,6.029,13.2974,4.59974,2469.867,2020-2-22T02:21:05Z
2020-02-22T00:23:33Z,42.805,6.029,13.2981,4.59972,2469.876,2020-2-22T02:24:08Z
2020-02-22T00:26:36Z,42.805,6.029,13.2969,4.59973,2469.806,2020-2-22T02:27:12Z
2020-02-22T00:29:39Z,42.805,6.029,13.2979,4.59973,2469.844,2020-2-22T02:30:15Z
2020-02-22T00:32:43Z,42.805,6.029,13.2974,4.59984,2469.876,2020-2-22T02:33:18Z
2020-02-22T00:35:46Z,42.805,6.029,13.3008,4.60009,2469.83,2020-2-22T02:36:21Z
2020-02-22T00:38:49Z,42.805,6.029,13.2983,4.59976,2469.89,2020-2-22T02:39:25Z
2020-02-22T00:41:53Z,42.805,6.029,13.2985,4.59996,2469.83,2020-2-22T02:42:28Z
2020-02-22T00:44:56Z,42.805,6.029,13.2970,4.59971,2469.853,2020-2-22T02:45:31Z
2020-02-22T00:47:59Z,42.805,6.029,13.2979,4.59986,2469.867,2020-2-22T02:48:34Z
2020-02-22T00:51:02Z,42.805,6.029,13.2974,4.59990,2469.83,2020-2-22T02:51:37Z
2020-02-22T00:54:05Z,42.805,6.029,13.2996,4.59976,2469.844,2020-2-22T02:54:41Z
2020-02-22T00:57:08Z,42.805,6.029,13.3004,4.59992,2469.83,2020-2-22T02:57:44Z
2020-02-22T01:00:12Z,42.805,6.029,13.2998,4.60003,2469.83,2020-2-22T03:00:47Z
2020-02-22T01:03:15Z,42.805,6.029,13.2968,4.59978,2469.89,2020-2-22T03:03:50Z
2020-02-22T01:06:18Z,42.805,6.029,13.2977,4.59976,2469.853,2020-2-22T03:06:53Z
2020-02-22T01:09:21Z,42.805,6.029,13.2971,4.59974,2469.83,2020-2-22T03:09:57Z
2020-02-22T01:12:24Z,42.805,6.029,13.2981,4.59984,2469.867,2020-2-22T03:13:00Z
2020-02-22T01:15:28Z,42.805,6.029,13.3000,4.60001,2469.853,2020-2-22T03:16:03Z
2020-02-22T01:18:31Z,42.805,6.029,13.2976,4.59996,2469.806,2020-2-22T03:19:06Z
2020-02-22T01:21:34Z,42.805,6.029,13.3019,4.60002,2469.83,2020-2-22T03:22:09Z
2020-02-22T01:24:37Z,42.805,6.029,13.2995,4.59976,2469.867,2020-2-22T03:25:13Z
2020-02-22T01:27:41Z,42.805,6.029,13.2987,4.59984,2469.853,2020-2-22T03:28:16Z
2020-02-22T01:30:44Z,42.805,6.029,13.3000,4.60004,2469.853,2020-2-22T03:31:19Z
2020-02-22T01:33:47Z,42.805,6.029,13.3005,4.60044,2469.83,2020-2-22T03:34:22Z
2020-02-22T01:36:50Z,42.805,6.029,13.2986,4.60000,2469.867,2020-2-22T03:37:26Z
2020-02-22T01:39:53Z,42.805,6.029,13.2983,4.60008,2469.853,2020-2-22T03:40:29Z
2020-02-22T01:42:57Z,42.805,6.029,13.2998,4.59999,2469.867,2020-2-22T03:43:32Z
2020-02-22T01:46:00Z,42.805,6.029,13.3000,4.60001,2469.844,2020-2-22T03:46:35Z
2020-02-22T01:49:03Z,42.805,6.029,13.3003,4.60056,2469.853,2020-2-22T03:49:38Z
2020-02-22T01:52:06Z,42.805,6.029,13.2990,4.60012,2469.867,2020-2-22T03:52:42Z
2020-02-22T01:55:09Z,42.805,6.029,13.2997,4.60009,2469.867,2020-2-22T03:55:45Z
2020-02-22T01:58:12Z,42.805,6.029,13.2993,4.59989,2469.867,2020-2-22T03:58:48Z
2020-02-22T02:01:16Z,42.805,6.029,13.3005,4.59995,2469.853,2020-2-22T04:01:51Z
2020-02-22T02:04:19Z,42.805,6.029,13.2977,4.59992,2469.844,2020-2-22T04:04:54Z
2020-02-22T02:07:22Z,42.805,6.029,13.2989,4.60003,2469.876,2020-2-22T04:07:57Z
2020-02-22T02:10:25Z,42.805,6.029,13.2993,4.60013,2469.821,2020-2-22T04:11:01Z
2020-02-22T02:13:28Z,42.805,6.029,13.3002,4.60009,2469.867,2020-2-22T04:14:04Z
2020-02-22T02:16:32Z,42.805,6.029,13.3000,4.60018,2469.89,2020-2-22T04:17:07Z
2020-02-22T02:19:35Z,42.805,6.029,13.3000,4.60005,2469.853,2020-2-22T04:20:10Z
2020-02-22T02:22:38Z,42.805,6.029,13.3002,4.59994,2469.853,2020-2-22T04:23:13Z
2020-02-22T02:25:41Z,42.805,6.029,13.3004,4.59983,2469.9,2020-2-22T04:26:17Z
2020-02-22T02:28:44Z,42.805,6.029,13.2996,4.60049,2469.876,2020-2-22T04:29:20Z
2020-02-22T02:31:48Z,42.805,6.029,13.2987,4.60011,2469.867,2020-2-22T04:32:23Z
2020-02-22T02:34:51Z,42.805,6.029,13.3006,4.60003,2469.876,2020-2-22T04:35:26Z
2020-02-22T02:37:54Z,42.805,6.029,13.3011,4.59999,2469.89,2020-2-22T04:38:30Z
2020-02-22T02:40:57Z,42.805,6.029,13.2997,4.60002,2469.89,2020-2-22T04:41:33Z
2020-02-22T02:44:01Z,42.805,6.029,13.3001,4.60003,2469.914,2020-2-22T04:44:36Z
2020-02-22T02:47:04Z,42.805,6.029,13.2993,4.60003,2469.914,2020-2-22T04:47:39Z
2020-02-22T02:50:07Z,42.805,6.029,13.2996,4.59998,2469.9,2020-2-22T04:50:42Z
2020-02-22T02:53:10Z,42.805,6.029,13.3012,4.60033,2469.914,2020-2-22T04:53:46Z
2020-02-22T02:56:13Z,42.805,6.029,13.3009,4.59996,2469.9,2020-2-22T04:56:49Z
2020-02-22T02:59:17Z,42.805,6.029,13.2998,4.60006,2469.923,2020-2-22T04:59:52Z
2020-02-22T03:02:20Z,42.805,6.029,13.3004,4.59997,2469.937,2020-2-22T05:02:55Z
2020-02-22T03:05:23Z,42.805,6.029,13.3002,4.60008,2469.923,2020-2-22T05:05:58Z
2020-02-22T03:08:26Z,42.805,6.029,13.3009,4.59994,2469.914,2020-2-22T05:09:02Z
2020-02-22T03:11:29Z,42.805,6.029,13.3013,4.60047,2469.914,2020-2-22T05:12:05Z
2020-02-22T03:14:33Z,42.805,6.029,13.2994,4.60029,2469.914,2020-2-22T05:15:08Z
2020-02-22T03:17:36Z,42.805,6.029,13.2993,4.60044,2469.937,2020-2-22T05:18:11Z
2020-02-22T03:20:39Z,42.805,6.029,13.2987,4.60024,2469.923,2020-2-22T05:21:14Z
2020-02-22T03:23:42Z,42.805,6.029,13.2991,4.60018,2469.937,2020-2-22T05:24:18Z
2020-02-22T03:26:45Z,42.805,6.029,13.2998,4.60031,2469.923,2020-2-22T05:27:21Z
2020-02-22T03:29:49Z,42.805,6.029,13.3003,4.60046,2469.984,2020-2-22T05:30:24Z
2020-02-22T03:32:52Z,42.805,6.029,13.2990,4.60034,2469.96,2020-2-22T05:33:27Z
2020-02-22T03:35:55Z,42.805,6.029,13.2993,4.60010,2469.96,2020-2-22T05:36:30Z
2020-02-22T03:38:58Z,42.805,6.029,13.2999,4.60023,2469.96,2020-2-22T05:39:34Z
2020-02-22T03:42:01Z,42.805,6.029,13.2999,4.60059,2469.96,2020-2-22T05:42:37Z
2020-02-22T03:45:05Z,42.805,6.029,13.3006,4.60014,2469.937,2020-2-22T05:45:40Z
2020-02-22T03:48:10Z,42.805,6.029,13.2992,4.60011,2469.984,2020-2-22T05:48:45Z
2020-02-22T03:51:13Z,42.805,6.029,13.2990,4.60027,2469.984,2020-2-22T05:51:48Z
2020-02-22T03:54:16Z,42.805,6.029,13.3017,4.60036,2469.984,2020-2-22T05:54:51Z
2020-02-22T03:57:19Z,42.805,6.029,13.2974,4.59982,2469.947,2020-2-22T05:57:55Z
2020-02-22T04:00:22Z,42.805,6.029,13.2975,4.59974,2469.956,2020-2-22T06:00:58Z
2020-02-22T04:03:26Z,42.805,6.029,13.2982,4.59981,2469.984,2020-2-22T06:04:01Z
2020-02-22T04:06:29Z,42.805,6.029,13.2992,4.59997,2469.993,2020-2-22T06:07:04Z
2020-02-22T04:09:32Z,42.805,6.029,13.3000,4.59998,2469.947,2020-2-22T06:10:07Z
2020-02-22T04:12:35Z,42.805,6.029,13.2978,4.59977,2469.97,2020-2-22T06:13:11Z
2020-02-22T04:15:38Z,42.805,6.029,13.2968,4.59978,2469.97,2020-2-22T06:16:14Z
2020-02-22T04:18:42Z,42.805,6.029,13.2967,4.59976,2469.993,2020-2-22T06:19:17Z
2020-02-22T04:21:45Z,42.805,6.029,13.2968,4.59973,2469.97,2020-2-22T06:22:20Z
2020-02-22T04:24:48Z,42.805,6.029,13.2968,4.59973,2470.04,2020-2-22T06:25:23Z
2020-02-22T04:27:51Z,42.805,6.029,13.2970,4.59976,2469.993,2020-2-22T06:28:27Z
2020-02-22T04:30:54Z,42.805,6.029,13.2967,4.59971,2470.007,2020-2-22T06:31:30Z
2020-02-22T04:33:58Z,42.805,6.029,13.2968,4.59976,2469.993,2020-2-22T06:34:33Z
2020-02-22T04:37:01Z,42.805,6.029,13.2968,4.59971,2470.017,2020-2-22T06:37:36Z
2020-02-22T04:40:04Z,42.805,6.029,13.2967,4.59971,2470.063,2020-2-22T06:40:39Z
2020-02-22T04:43:07Z,42.805,6.029,13.2968,4.59973,2469.993,2020-2-22T06:43:43Z
2020-02-22T04:46:10Z,42.805,6.029,13.2967,4.59969,2470.03,2020-2-22T06:46:46Z
2020-02-22T04:49:14Z,42.805,6.029,13.2968,4.59971,2470.049,2020-2-22T06:49:49Z
2020-02-22T04:52:17Z,42.805,6.029,13.2967,4.59971,2470.017,2020-2-22T06:52:52Z
2020-02-22T04:55:20Z,42.805,6.029,13.2967,4.59973,2470.04,2020-2-22T06:55:55Z
2020-02-22T04:58:24Z,42.805,6.029,13.2968,4.59972,2470.063,2020-2-22T06:58:59Z
2020-02-22T05:01:27Z,42.805,6.029,13.2967,4.59970,2470.053,2020-2-22T07:02:02Z
2020-02-22T05:04:30Z,42.805,6.029,13.2969,4.59969,2470.063,2020-2-22T07:05:05Z
2020-02-22T05:07:33Z,42.805,6.029,13.2971,4.59973,2470.017,2020-2-22T07:08:09Z
2020-02-22T05:10:36Z,42.805,6.029,13.2970,4.59971,2470.053,2020-2-22T07:11:12Z
2020-02-22T05:13:40Z,42.805,6.029,13.2972,4.59973,2470.053,2020-2-22T07:14:15Z
2020-02-22T05:16:43Z,42.805,6.029,13.2969,4.59973,2470.077,2020-2-22T07:17:18Z
2020-02-22T05:19:46Z,42.805,6.029,13.2971,4.59971,2470.04,2020-2-22T07:20:21Z
2020-02-22T05:22:49Z,42.805,6.029,13.2979,4.59976,2470.04,2020-2-22T07:23:25Z
2020-02-22T05:25:52Z,42.805,6.029,13.2967,4.59972,2470.04,2020-2-22T07:26:28Z
2020-02-22T05:28:56Z,42.805,6.029,13.2970,4.59976,2470.077,2020-2-22T07:29:31Z
2020-02-22T05:31:59Z,42.805,6.029,13.2974,4.59972,2470.053,2020-2-22T07:32:34Z
2020-02-22T05:35:02Z,42.805,6.029,13.2969,4.59977,2470.063,2020-2-22T07:35:37Z
2020-02-22T05:38:05Z,42.805,6.029,13.2967,4.59970,2470.087,2020-2-22T07:38:41Z
2020-02-22T05:41:08Z,42.805,6.029,13.2971,4.59972,2470.087,2020-2-22T07:41:44Z
2020-02-22T05:44:12Z,42.805,6.029,13.2976,4.59977,2470.087,2020-2-22T07:44:47Z
2020-02-22T05:47:15Z,42.805,6.029,13.2970,4.59976,2470.063,2020-2-22T07:47:50Z
2020-02-22T05:50:18Z,42.805,6.029,13.2968,4.59973,2470.087,2020-2-22T07:50:54Z
2020-02-22T05:53:21Z,42.805,6.029,13.2974,4.59973,2470.1,2020-2-22T07:53:57Z
2020-02-22T05:56:24Z,42.805,6.029,13.2973,4.59976,2470.1,2020-2-22T07:57:00Z
2020-02-22T05:59:28Z,42.805,6.029,13.2972,4.59971,2470.1,2020-2-22T08:00:03Z
2020-02-22T06:02:31Z,42.805,6.029,13.2975,4.59973,2470.1,2020-2-22T08:03:06Z
2020-02-22T06:05:34Z,42.805,6.029,13.2968,4.59973,2470.1,2020-2-22T08:06:09Z
2020-02-22T06:08:37Z,42.805,6.029,13.2971,4.59976,2470.087,2020-2-22T08:09:13Z
2020-02-22T06:11:40Z,42.805,6.029,13.2971,4.59975,2470.087,2020-2-22T08:12:16Z
2020-02-22T06:14:44Z,42.805,6.029,13.2974,4.59975,2470.087,2020-2-22T08:15:19Z
2020-02-22T06:17:47Z,42.805,6.029,13.2971,4.59972,2470.087,2020-2-22T08:18:22Z
2020-02-22T06:20:50Z,42.805,6.029,13.2971,4.59972,2470.063,2020-2-22T08:21:25Z
2020-02-22T06:23:53Z,42.805,6.029,13.2971,4.59973,2470.063,2020-2-22T08:24:29Z
2020-02-22T06:26:56Z,42.805,6.029,13.2970,4.59971,2470.1,2020-2-22T08:27:32Z
2020-02-22T06:30:00Z,42.805,6.029,13.2969,4.59972,2470.11,2020-2-22T08:30:35Z
2020-02-22T06:33:03Z,42.805,6.029,13.2969,4.59972,2470.1,2020-2-22T08:33:38Z
2020-02-22T06:36:06Z,42.805,6.029,13.2970,4.59975,2470.087,2020-2-22T08:36:42Z
2020-02-22T06:39:09Z,42.805,6.029,13.2973,4.59973,2470.133,2020-2-22T08:39:45Z
2020-02-22T06:42:13Z,42.805,6.029,13.2966,4.59973,2470.087,2020-2-22T08:42:48Z
2020-02-22T06:45:16Z,42.805,6.029,13.2974,4.59973,2470.077,2020-2-22T08:45:51Z
2020-02-22T06:48:19Z,42.805,6.029,13.2968,4.59972,2470.133,2020-2-22T08:48:54Z
2020-02-22T06:51:22Z,42.805,6.029,13.2977,4.59981,2470.133,2020-2-22T08:51:58Z
2020-02-22T06:54:25Z,42.805,6.029,13.2993,4.59981,2470.1,2020-2-22T08:55:01Z
2020-02-22T06:57:29Z,42.805,6.029,13.2973,4.59975,2470.133,2020-2-22T08:58:04Z
2020-02-22T07:00:32Z,42.805,6.029,13.2973,4.59974,2470.124,2020-2-22T09:01:07Z
2020-02-22T07:03:35Z,42.805,6.029,13.2981,4.59976,2470.087,2020-2-22T09:04:10Z
2020-02-22T07:06:38Z,42.805,6.029,13.2984,4.59991,2470.1,2020-2-22T09:07:14Z
2020-02-22T07:09:41Z,42.805,6.029,13.2987,4.59996,2470.087,2020-2-22T09:10:17Z
2020-02-22T07:12:45Z,42.805,6.029,13.2993,4.59991,2470.11,2020-2-22T09:13:20Z
2020-02-22T07:15:48Z,42.805,6.029,13.2995,4.59985,2470.124,2020-2-22T09:16:23Z
2020-02-22T07:18:51Z,42.805,6.029,13.2986,4.59992,2470.1,2020-2-22T09:19:26Z
2020-02-22T07:21:54Z,42.805,6.029,13.2974,4.59975,2470.11,2020-2-22T09:22:30Z
2020-02-22T07:24:58Z,42.805,6.029,13.2982,4.59992,2470.087,2020-2-22T09:25:33Z
2020-02-22T07:28:01Z,42.805,6.029,13.2991,4.60019,2470.1,2020-2-22T09:28:36Z
2020-02-22T07:31:04Z,42.805,6.029,13.2988,4.59996,2470.124,2020-2-22T09:31:40Z
2020-02-22T07:34:07Z,42.805,6.029,13.2988,4.59998,2470.124,2020-2-22T09:34:43Z
2020-02-22T07:37:11Z,42.805,6.029,13.2982,4.59978,2470.11,2020-2-22T09:37:46Z
2020-02-22T07:40:14Z,42.805,6.029,13.2986,4.59984,2470.11,2020-2-22T09:40:49Z
2020-02-22T07:43:17Z,42.805,6.029,13.2983,4.59977,2470.1,2020-2-22T09:43:52Z
2020-02-22T07:46:20Z,42.805,6.029,13.2996,4.59995,2470.124,2020-2-22T09:46:56Z
2020-02-22T07:49:23Z,42.805,6.029,13.2979,4.59989,2470.1,2020-2-22T09:49:59Z
2020-02-22T07:52:27Z,42.805,6.029,13.2978,4.59975,2470.1,2020-2-22T09:53:02Z
2020-02-22T07:55:30Z,42.805,6.029,13.2974,4.59972,2470.096,2020-2-22T09:56:05Z
2020-02-22T07:58:33Z,42.805,6.029,13.2983,4.59984,2470.124,2020-2-22T09:59:09Z
2020-02-22T08:01:36Z,42.805,6.029,13.2983,4.59999,2470.11,2020-2-22T10:02:12Z
2020-02-22T08:04:40Z,42.805,6.029,13.2985,4.60006,2470.124,2020-2-22T10:05:15Z
2020-02-22T08:07:43Z,42.805,6.029,13.2990,4.60019,2470.11,2020-2-22T10:08:18Z
2020-02-22T08:10:46Z,42.805,6.029,13.2993,4.60006,2470.087,2020-2-22T10:11:21Z
2020-02-22T08:13:49Z,42.805,6.029,13.2990,4.59996,2470.11,2020-2-22T10:14:25Z
2020-02-22T08:16:53Z,42.805,6.029,13.2983,4.59995,2470.124,2020-2-22T10:17:28Z
2020-02-22T08:19:56Z,42.805,6.029,13.2991,4.59994,2470.087,2020-2-22T10:20:31Z
2020-02-22T08:22:59Z,42.805,6.029,13.2991,4.60000,2470.1,2020-2-22T10:23:35Z
2020-02-22T08:26:02Z,42.805,6.029,13.2996,4.60057,2470.1,2020-2-22T10:26:38Z
2020-02-22T08:29:06Z,42.805,6.029,13.2985,4.60023,2470.1,2020-2-22T10:29:41Z
2020-02-22T08:32:09Z,42.805,6.029,13.2991,4.60024,2470.087,2020-2-22T10:32:44Z
2020-02-22T08:35:12Z,42.805,6.029,13.2976,4.59998,2470.124,2020-2-22T10:35:48Z
2020-02-22T08:38:16Z,42.805,6.029,13.2996,4.59988,2470.1,2020-2-22T10:38:51Z
2020-02-22T08:41:19Z,42.805,6.029,13.2990,4.59993,2470.11,2020-2-22T10:41:55Z
2020-02-22T08:44:23Z,42.805,6.029,13.2989,4.59998,2470.1,2020-2-22T10:44:58Z
2020-02-22T08:47:26Z,42.805,6.029,13.2991,4.60001,2470.1,2020-2-22T10:48:01Z
2020-02-22T08:50:29Z,42.805,6.029,13.2968,4.59973,2470.087,2020-2-22T10:51:04Z
2020-02-22T08:53:32Z,42.805,6.029,13.2994,4.59991,2470.124,2020-2-22T10:54:08Z
2020-02-22T08:56:35Z,42.805,6.029,13.2993,4.60002,2470.11,2020-2-22T10:57:11Z
2020-02-22T08:59:39Z,42.805,6.029,13.2988,4.59992,2470.1,2020-2-22T11:00:14Z
2020-02-22T09:02:42Z,42.805,6.029,13.2982,4.59987,2470.11,2020-2-22T11:03:17Z
2020-02-22T09:05:45Z,42.805,6.029,13.2982,4.59986,2470.063,2020-2-22T11:06:21Z
2020-02-22T09:08:48Z,42.805,6.029,13.2981,4.59996,2470.087,2020-2-22T11:09:24Z
2020-02-22T09:11:52Z,42.805,6.029,13.2968,4.59971,2470.1,2020-2-22T11:12:27Z
2020-02-22T09:14:55Z,42.805,6.029,13.2975,4.59988,2470.1,2020-2-22T11:15:30Z
2020-02-22T09:17:58Z,42.805,6.029,13.2987,4.60001,2470.1,2020-2-22T11:18:34Z
2020-02-22T09:21:01Z,42.805,6.029,13.2968,4.59971,2470.063,2020-2-22T11:21:37Z
2020-02-22T09:24:05Z,42.805,6.029,13.2969,4.59971,2470.063,2020-2-22T11:24:40Z
2020-02-22T09:27:08Z,42.805,6.029,13.2976,4.59993,2470.124,2020-2-22T11:27:43Z
2020-02-22T09:30:11Z,42.805,6.029,13.2976,4.59996,2470.1,2020-2-22T11:30:47Z
2020-02-22T09:33:14Z,42.805,6.029,13.2979,4.59973,2470.063,2020-2-22T11:33:50Z
2020-02-22T09:36:18Z,42.805,6.029,13.2967,4.59972,2470.077,2020-2-22T11:36:53Z
2020-02-22T09:39:21Z,42.805,6.029,13.2976,4.59970,2470.063,2020-2-22T11:39:56Z
2020-02-22T09:42:24Z,42.805,6.029,13.2972,4.59972,2470.04,2020-2-22T11:42:59Z
2020-02-22T09:45:27Z,42.805,6.029,13.2986,4.59996,2470.063,2020-2-22T11:46:03Z
2020-02-22T09:48:30Z,42.805,6.029,13.2986,4.59996,2470.04,2020-2-22T11:49:06Z
2020-02-22T09:51:34Z,42.805,6.029,13.2996,4.59992,2470.11,2020-2-22T11:52:09Z
2020-02-22T09:54:37Z,42.805,6.029,13.2973,4.59980,2470.124,2020-2-22T11:55:12Z
2020-02-22T09:57:40Z,42.805,6.029,13.2976,4.59989,2470.077,2020-2-22T11:58:16Z
2020-02-22T10:00:43Z,42.805,6.029,13.2975,4.59980,2470.063,2020-2-22T12:01:19Z
2020-02-22T10:03:47Z,42.805,6.029,13.2985,4.59987,2470.063,2020-2-22T12:04:22Z
2020-02-22T10:06:50Z,42.805,6.029,13.2979,4.59994,2470.087,2020-2-22T12:07:25Z
2020-02-22T10:09:53Z,42.805,6.029,13.2983,4.59998,2470.053,2020-2-22T12:10:28Z
2020-02-22T10:12:56Z,42.805,6.029,13.2976,4.59980,2470.063,2020-2-22T12:13:32Z
2020-02-22T10:15:59Z,42.805,6.029,13.2983,4.59990,2470.063,2020-2-22T12:16:35Z
2020-02-22T10:19:03Z,42.805,6.029,13.2972,4.59981,2470.04,2020-2-22T12:19:38Z
2020-02-22T10:22:06Z,42.805,6.029,13.2977,4.59976,2470.063,2020-2-22T12:22:41Z
2020-02-22T10:25:09Z,42.805,6.029,13.2965,4.59970,2470.067,2020-2-22T12:25:45Z
2020-02-22T10:28:12Z,42.805,6.029,13.2967,4.59971,2470.017,2020-2-22T12:28:48Z
2020-02-22T10:31:16Z,42.805,6.029,13.2976,4.59983,2470.017,2020-2-22T12:31:51Z
2020-02-22T10:34:19Z,42.805,6.029,13.2982,4.59993,2470.053,2020-2-22T12:34:54Z
2020-02-22T10:37:22Z,42.805,6.029,13.2971,4.59976,2470.063,2020-2-22T12:37:57Z
2020-02-22T10:40:25Z,42.805,6.029,13.2981,4.59987,2470.04,2020-2-22T12:41:01Z
2020-02-22T10:43:28Z,42.805,6.029,13.2981,4.59986,2470.03,2020-2-22T12:44:04Z
2020-02-22T10:46:32Z,42.805,6.029,13.2976,4.59975,2469.993,2020-2-22T12:47:07Z
2020-02-22T10:49:35Z,42.805,6.029,13.2975,4.59978,2470.03,2020-2-22T12:50:10Z
2020-02-22T10:52:38Z,42.805,6.029,13.2985,4.59986,2470.03,2020-2-22T12:53:14Z
2020-02-22T10:55:41Z,42.805,6.029,13.2979,4.59983,2470.017,2020-2-22T12:56:17Z
2020-02-22T10:58:44Z,42.805,6.029,13.2969,4.59973,2470.017,2020-2-22T12:59:20Z
2020-02-22T11:01:48Z,42.805,6.029,13.2980,4.59993,2469.993,2020-2-22T13:02:23Z
2020-02-22T11:04:51Z,42.805,6.029,13.2977,4.59981,2470.04,2020-2-22T13:05:26Z
2020-02-22T11:07:54Z,42.805,6.029,13.2981,4.59976,2469.993,2020-2-22T13:08:30Z
2020-02-22T11:10:57Z,42.805,6.029,13.2983,4.59997,2470.03,2020-2-22T13:11:33Z
2020-02-22T11:14:01Z,42.805,6.029,13.2986,4.59988,2470.04,2020-2-22T13:14:36Z
2020-02-22T11:17:04Z,42.805,6.029,13.2974,4.59986,2470.04,2020-2-22T13:17:39Z
2020-02-22T11:20:07Z,42.805,6.029,13.2983,4.59985,2470.017,2020-2-22T13:20:42Z
2020-02-22T11:23:10Z,42.805,6.029,13.2984,4.59988,2470.017,2020-2-22T13:23:46Z
2020-02-22T11:26:13Z,42.805,6.029,13.2983,4.59986,2469.993,2020-2-22T13:26:49Z
2020-02-22T11:29:17Z,42.805,6.029,13.2976,4.59984,2470.017,2020-2-22T13:29:52Z
2020-02-22T11:32:20Z,42.805,6.029,13.2982,4.59985,2470.007,2020-2-22T13:32:55Z
2020-02-22T11:35:23Z,42.805,6.029,13.2975,4.59983,2469.993,2020-2-22T13:35:58Z
2020-02-22T11:38:26Z,42.805,6.029,13.2968,4.59979,2469.97,2020-2-22T13:39:02Z
2020-02-22T11:41:29Z,42.805,6.029,13.2982,4.59983,2469.993,2020-2-22T13:42:05Z
2020-02-22T11:44:33Z,42.805,6.029,13.2989,4.59981,2470.017,2020-2-22T13:45:08Z
2020-02-22T11:47:36Z,42.805,6.029,13.2977,4.59978,2469.993,2020-2-22T13:48:11Z
2020-02-22T11:50:39Z,42.805,6.029,13.2976,4.59986,2469.97,2020-2-22T13:51:14Z
2020-02-22T11:53:42Z,42.805,6.029,13.2980,4.59986,2469.993,2020-2-22T13:54:18Z
2020-02-22T11:56:45Z,42.805,6.029,13.2987,4.59986,2469.97,2020-2-22T13:57:21Z
2020-02-22T11:59:49Z,42.805,6.029,13.2969,4.59969,2469.97,2020-2-22T14:00:24Z
2020-02-22T12:02:52Z,42.805,6.029,13.2979,4.59986,2470.007,2020-2-22T14:03:27Z
2020-02-22T12:05:55Z,42.805,6.029,13.2975,4.59985,2469.984,2020-2-22T14:06:31Z
2020-02-22T12:08:58Z,42.805,6.029,13.2969,4.59970,2469.984,2020-2-22T14:09:34Z
2020-02-22T12:12:01Z,42.805,6.029,13.2971,4.59971,2469.993,2020-2-22T14:12:37Z
2020-02-22T12:15:05Z,42.805,6.029,13.2968,4.59973,2469.96,2020-2-22T14:15:40Z
2020-02-22T12:18:08Z,42.805,6.029,13.2964,4.59968,2469.96,2020-2-22T14:18:43Z
2020-02-22T12:21:11Z,42.805,6.029,13.2974,4.59978,2469.96,2020-2-22T14:21:47Z
2020-02-22T12:24:14Z,42.805,6.029,13.2967,4.59968,2469.96,2020-2-22T14:24:50Z
2020-02-22T12:27:18Z,42.805,6.029,13.2971,4.59968,2469.947,2020-2-22T14:27:53Z
2020-02-22T12:30:21Z,42.805,6.029,13.2969,4.59968,2469.947,2020-2-22T14:30:56Z
2020-02-22T12:33:24Z,42.805,6.029,13.2965,4.59970,2469.923,2020-2-22T14:34:00Z
2020-02-22T12:36:28Z,42.805,6.029,13.2982,4.59986,2469.947,2020-2-22T14:37:03Z
2020-02-22T12:39:31Z,42.805,6.029,13.2988,4.59981,2469.914,2020-2-22T14:40:06Z
2020-02-22T12:42:34Z,42.805,6.029,13.2970,4.59978,2469.9,2020-2-22T14:43:09Z
2020-02-22T12:45:37Z,42.805,6.029,13.2979,4.59969,2469.97,2020-2-22T14:46:13Z
2020-02-22T12:48:40Z,42.805,6.029,13.2972,4.59968,2469.984,2020-2-22T14:49:16Z
2020-02-22T12:51:44Z,42.805,6.029,13.2971,4.59970,2469.97,2020-2-22T14:52:19Z
2020-02-22T12:54:47Z,42.805,6.029,13.2968,4.59973,2469.9,2020-2-22T14:55:22Z
2020-02-22T12:57:50Z,42.805,6.029,13.2969,4.59973,2469.97,2020-2-22T14:58:26Z
2020-02-22T13:00:53Z,42.805,6.029,13.2968,4.59968,2469.937,2020-2-22T15:01:29Z
2020-02-22T13:03:56Z,42.805,6.029,13.2968,4.59974,2469.984,2020-2-22T15:04:32Z
2020-02-22T13:07:00Z,42.805,6.029,13.2974,4.59969,2469.947,2020-2-22T15:07:35Z
2020-02-22T13:10:03Z,42.805,6.029,13.2971,4.59971,2469.984,2020-2-22T15:10:38Z
2020-02-22T13:13:06Z,42.805,6.029,13.2974,4.59971,2469.984,2020-2-22T15:13:42Z
2020-02-22T13:16:09Z,42.805,6.029,13.2976,4.59973,2469.9,2020-2-22T15:16:45Z
2020-02-22T13:19:12Z,42.805,6.029,13.2990,4.59994,2469.947,2020-2-22T15:19:48Z
2020-02-22T13:22:16Z,42.805,6.029,13.2967,4.59968,2469.96,2020-2-22T15:22:51Z
2020-02-22T13:25:19Z,42.805,6.029,13.2971,4.59970,2469.923,2020-2-22T15:25:54Z
2020-02-22T13:28:22Z,42.805,6.029,13.2981,4.59981,2469.947,2020-2-22T15:28:57Z
2020-02-22T13:31:25Z,42.805,6.029,13.2969,4.59968,2469.923,2020-2-22T15:32:01Z
2020-02-22T13:34:28Z,42.805,6.029,13.2970,4.59973,2469.97,2020-2-22T15:35:04Z
2020-02-22T13:37:32Z,42.805,6.029,13.2968,4.59967,2469.914,2020-2-22T15:38:07Z
2020-02-22T13:40:35Z,42.805,6.029,13.2969,4.59967,2469.947,2020-2-22T15:41:10Z
2020-02-22T13:43:38Z,42.805,6.029,13.2966,4.59967,2469.937,2020-2-22T15:44:14Z
2020-02-22T13:46:41Z,42.805,6.029,13.2968,4.59968,2469.97,2020-2-22T15:47:17Z
2020-02-22T13:49:45Z,42.805,6.029,13.2969,4.59972,2469.937,2020-2-22T15:50:20Z
2020-02-22T13:52:48Z,42.805,6.029,13.2968,4.59966,2469.923,2020-2-22T15:53:23Z
2020-02-22T13:55:51Z,42.805,6.029,13.2971,4.59968,2469.96,2020-2-22T15:56:26Z
2020-02-22T13:58:54Z,42.805,6.029,13.2968,4.59966,2469.9,2020-2-22T15:59:30Z
2020-02-22T14:01:57Z,42.805,6.029,13.2971,4.59967,2469.923,2020-2-22T16:02:33Z
2020-02-22T14:05:01Z,42.805,6.029,13.2964,4.59966,2469.9,2020-2-22T16:05:36Z
2020-02-22T14:08:04Z,42.805,6.029,13.2968,4.59966,2469.923,2020-2-22T16:08:39Z
2020-02-22T14:11:07Z,42.805,6.029,13.2970,4.59966,2469.923,2020-2-22T16:11:42Z
2020-02-22T14:14:10Z,42.805,6.029,13.2971,4.59966,2469.947,2020-2-22T16:14:46Z
2020-02-22T14:17:13Z,42.805,6.029,13.2964,4.59969,2469.937,2020-2-22T16:17:49Z
2020-02-22T14:20:16Z,42.805,6.029,13.2967,4.59966,2469.937,2020-2-22T16:20:52Z
2020-02-22T14:23:20Z,42.805,6.029,13.2969,4.59967,2469.923,2020-2-22T16:23:55Z
2020-02-22T14:26:23Z,42.805,6.029,13.2973,4.59969,2469.937,2020-2-22T16:26:58Z
2020-02-22T14:29:26Z,42.805,6.029,13.2974,4.59980,2469.923,2020-2-22T16:30:02Z
2020-02-22T14:32:30Z,42.805,6.029,13.2984,4.59991,2469.923,2020-2-22T16:33:05Z
2020-02-22T14:35:33Z,42.805,6.029,13.2974,4.59981,2469.937,2020-2-22T16:36:08Z
2020-02-22T14:38:36Z,42.805,6.029,13.2975,4.59972,2469.96,2020-2-22T16:39:11Z
2020-02-22T14:41:39Z,42.805,6.029,13.2974,4.59988,2469.9,2020-2-22T16:42:15Z
2020-02-22T14:44:42Z,42.805,6.029,13.2979,4.59984,2469.937,2020-2-22T16:45:18Z
2020-02-22T14:47:46Z,42.805,6.029,13.2982,4.59999,2469.97,2020-2-22T16:48:21Z
2020-02-22T14:50:49Z,42.805,6.029,13.2979,4.59990,2469.909,2020-2-22T16:51:24Z
2020-02-22T14:53:52Z,42.805,6.029,13.2983,4.59996,2469.947,2020-2-22T16:54:27Z
2020-02-22T14:56:55Z,42.805,6.029,13.2988,4.60009,2469.947,2020-2-22T16:57:31Z
2020-02-22T14:59:58Z,42.805,6.029,13.2978,4.60006,2469.96,2020-2-22T17:00:34Z
2020-02-22T15:03:01Z,42.805,6.029,13.2979,4.59998,2469.914,2020-2-22T17:03:37Z
2020-02-22T15:06:05Z,42.805,6.029,13.2983,4.60000,2469.937,2020-2-22T17:06:40Z
2020-02-22T15:09:08Z,42.805,6.029,13.2992,4.60006,2469.947,2020-2-22T17:09:43Z
2020-02-22T15:12:11Z,42.805,6.029,13.2988,4.60001,2469.937,2020-2-22T17:12:47Z
2020-02-22T15:15:14Z,42.805,6.029,13.2982,4.60019,2469.933,2020-2-22T17:15:50Z